Forside
METAR-TAF:

METAR-TAF

Lufthavne :

Princeton Municipal Airport

Princeton, Minnesota, USA

Breddekreds: 45-33N, længdekreds: 093-36W, højde: 298 m

Aktuelle vejr

Denne rapport blev lavet for 23 minutter siden, kl. 12:15 UTC
Vind 5 kt fra østsydøst
Temperatur 18°C
Fugtighed 88%
Tryk 1016 hPa
Sigt: 16.1 km
skyfri

METAR: KPNM 121215Z AUTO 11005KT 10SM CLR 18/16 A3000 RMK AO2

Tid: 07:38 (12:38 UTC)


TAF: fraværende

Vejrobservationer og prognoser fra mere end 4000 lufthavne (METAR og TAF).

De gule og røde prikker repræsenterer de meteorologiske stationer.

Flyt musen over at se navnet på stationen.

Så klik over at se vejr observationer og prognoser.

At skifte det kort: Klik på de grønne knapper med et sort kors for at zoome ind; på den grønne knap med en bindestreg for at zoome ud; eller på de grønne pile for tilstødende kort.


METAR-TAF: